Lot # 1 - John Deere Riding Lawn Mower Model LA 135

Opening Bid : $ 5.00
Pickup Instructions:
Start Date/Time: 24-Nov-2021 7:00:00 AM
End Date/Time: 01-Dec-2021 7:02:00 PM
Current bid:

$710.00

Highest bidder:

OPUS 14

Auction has ended

Description :

John Deere Riding Lawn Mower. This lawn mower appears to be in good shape. It has not been operated in a while and will need a new battery. Come with keys and original manual. 

The John Deere LA135 lawn mower is a popular garden tractor from the team at John Deere. It consists of a 4X2 2WD chassis that houses a Briggs and Stratton gasoline, 2 cylinder V twin engine. This engine is 0.656 liters (40 cubic inches) in size and produces a power output of 22hp. The engine is started using a key ignition and 12 volt battery. The 12V battery is charged by a 9 amp alternator. The air cooled engine needs 1.9 liters of oil to remain fully lubricated. The fuel tank supplying the engine is located to the rear of the machine and comes in 2 different sizes; the California model can hold 8.5 liters (2.25 US gallons). while the ‘regular’ model can hold15.1 (4 US gallons)

Auction History

Highest bidder is OPUS 14

Date Bid User
01-Dec-2021 6:59:08 PM $710.00 OPUS 14
01-Dec-2021 6:58:46 PM $690.00 Professor
01-Dec-2021 6:58:46 PM $680.00 OPUS 14
01-Dec-2021 6:58:09 PM $660.00 Professor
01-Dec-2021 6:58:09 PM $650.00 OPUS 14
01-Dec-2021 6:57:48 PM $635.00 Professor
01-Dec-2021 6:57:48 PM $625.00 OPUS 14
01-Dec-2021 6:57:07 PM $610.00 Professor
01-Dec-2021 6:57:07 PM $600.00 OPUS 14
30-Nov-2021 10:29:42 AM $545.00 Professor
30-Nov-2021 10:29:42 AM $535.00 t911
24-Nov-2021 3:24:18 PM $519.00 Professor
24-Nov-2021 3:23:52 PM $505.00 t911
24-Nov-2021 3:23:52 PM $500.00 Professor
24-Nov-2021 12:08:58 PM $355.00 t911
24-Nov-2021 9:00:53 AM $314.00 rbd96976
24-Nov-2021 9:00:42 AM $280.00 t911
24-Nov-2021 9:00:42 AM $275.00 rbd96976
24-Nov-2021 9:00:33 AM $205.00 t911
24-Nov-2021 9:00:33 AM $200.00 rbd96976
24-Nov-2021 8:52:29 AM $101.00 t911
24-Nov-2021 8:52:29 AM $100.00 Juniors229
24-Nov-2021 8:37:07 AM $5.00 t911

© 2021 Sound Estate Company LLC. All rights reserved | Designed & Developed by invictusstudio.com